Tracking 29495 objects as of 7-Sep-2024
HD Live streaming from Space Station
objects crossing your sky now

RANGE-A

Track RANGE-A now!
10-day predictions
RANGE-A is classified as:


NORAD ID: 43772
Int'l Code: 2018-099Q
Perigee: 530.6 km
Apogee: 536.6 km
Inclination: 97.5 °
Period: 95.2 minutes
Semi major axis: 6904 km
RCS: Unknown
Launch date: December 3, 2018
Source: (TBD)
Launch site: AIR FORCE WESTERN TEST RANGE (AFWTR)

Uplink (MHz):
Downlink (MHz): 437.150
Beacon (MHz):
Mode: 0.1kbps-115.2kbps FSK/MSK/GFSK/GMSK
Call sign:
Status: Inactive

Your satellite tracking list
Your tracking list is empty




NASA's NSSDC Master Catalog

Two Line Element Set (TLE):
1 43772U 18099Q   24250.76259461  .00033291  00000-0  18721-2 0  9992
2 43772  97.5164 310.7523 0004377 358.1349   1.9865 15.13189073315042
Source of the keplerian elements: Caltech